{"data":{"norad_id":59733,"intl_designator":"2024-090D","name":"STARLINK-31833","alt_names":[],"object_type":"PAYLOAD","status":"ACTIVE","operator":null,"country":"US","launch_date":"2024-05-13","launch_site_code":"AFETR","launch_vehicle":null,"mission":null,"orbit_class":"UNKNOWN","rcs_meters":null,"size_class":null,"mass_kg":null,"dimensions":null,"purposes":["comms"],"wikipedia_slug":null,"has_3d_model":false,"image_url":null,"decayed_at":null,"tle_current":{"epoch":"2026-09-21T10:14:38.767776Z","epoch_age_seconds":91285,"freshness":"FRESH","line1":"1 59733U 24090D   26264.42683759  .00000888  00000+0  41774-4 0  9996","line2":"2 59733  43.0026 158.2421 0001172 276.3379  83.7339 15.27587096133375","mean_motion":15.27587096,"eccentricity":0.0001172,"inclination_deg":43.0026,"raan_deg":158.2421,"arg_perigee_deg":276.3379,"mean_anomaly_deg":83.7339,"bstar":4.1774e-5,"rev_number":13337,"period_min":94.266310822516,"perigee_km":482.22371962493,"apogee_km":483.83197666533,"semimajor_km":6861.1648481451,"source":"CELESTRAK","updated_at":"2026-09-22T09:00:49.062077Z"}}}